Погода Kerkyra Airport

Поиск расширенной информации на нашем сайте:

Новости сайта



02.01.2020
Опубликован Долгосрочный прогноз погоды по городам России и ближнего зарубежья на январь 2020 года.
Карты: Прогноз на январь и февраль 2020 года, Сравнение прогнозируемой аномалии приземной температуры воздуха на январь 2020 года по разным моделям.




Погода Kerkyra Airport - сегодня

Время (UTC), дата Ветер
(°,м/с) 
Видим.   Явления Облачность Т
(°С)
Тd
(°С)
f(%) Тe
(°С)
Pmin
(гПа)
dP
(гПа)
Po
(мм)
O2
(г/м3)
Тmin Tmax R s Состояние
почвы
12 07.07.20 170 (Ю) 2{5}  20000 м    ясно 
+31.8 +18.3 45 +47  1004.5  0.1  753  268        275   
15 07.07.20 340 (С) 4{6}  20000 м    1/1 1000 м 
[Cu med, cong]
+33.8 +19.4 43 +51  1004.3  -0.1  753  265        275   
18 07.07.20 300 (СЗ) 2{7}  20000 м    4/1 1200 м средняя 
[Cu med, cong|Ac und]
+30 +19 52 +46  1005.8  1.5  754  269    +33.8    270   
21 07.07.20 310 (СЗ) 3{6}  10 км    ясно 
+28.2 +14.8 44 +36  1007.5  1.7  755  273        270   
00 08.07.20 тихо () {3}  10 км    ясно 
+24.4 +16.3 61 +35  1008.3  0.8  756  276        275   
03 08.07.20 тихо () {2}  20000 м    ясно 
+23 +16.9 69 +35  1008.9  0.6  756  277        275   
06 08.07.20 тихо () {2}  20000 м    ясно 
+25 +17.7 64 +38  1010.3  1.4  757  276  +22.2      265  сухая 
09 08.07.20 360 (С) 3{5}  20000 м    ясно 
+29.2 +16.1 45 +40  1011  0.7  758  273        270   
12 08.07.20 350 (С) 3{5}  20000 м    ясно 
+30.2 +17.4 46 +43  1011.6  0.7  758  271        265   
15 08.07.20 320 (СЗ) 3{6}  20000 м    ясно 
+30 +18.3 50 +45  1011.4  -0.3  758  271        265   
18 08.07.20 тихо ()   20000 м    ясно 
+28 +15.7 47 +38  1011.4  758  274    +30.4       
21 08.07.20 тихо () {2}  10 км    ясно 
+23 +14.6 59 +31  1011.4  758  279        265   
00 09.07.20 тихо () {2}  10 км    ясно 
+21 +15.3 70 +30  1012.6  759  281        260   
03 09.07.20 тихо () {2}  10 км    ясно 
+22 +17.2 74 +34  1012.5  -0.1  759  279        270   
06 09.07.20 тихо () {3}  20000 м    ясно 
+24.6 +20.3 77 +43  1014.2  1.9  760  276  +20      260  сухая 
09 09.07.20 150 (ЮВ) 3{4}  20000 м    1/1 600 м 
[Cu hum]
+28.2 +19 57 +44  1014.5  0.2  761  273        270   
12 09.07.20 180 (Ю) 3{5}  20000 м    1/1 600 м 
[Cu hum]
+31 +19.1 49 +47  1014.6  0.2  761  271        270   
15 09.07.20 тихо () {6}  20000 м    ясно 
+31.4 +17.8 44 +45  1013.6  -0.9  760  271        280   
18 09.07.20 300 (СЗ) 20000 м    ясно 
+29 +16.6 47 +40  1013.5  -0.2  760  273    +32       
21 09.07.20 тихо () {3}  10 км    3/3 1000 м 
[Sc diur, vesp]
+24.8 +18.2 67 +39  1014.2  0.7  760  277        280   
00 10.07.20 тихо () {2}  10 км    ясно 
+23.4 +18.7 75 +39  1014.5  761  278        270   
03 10.07.20 тихо () {2}  20000 м    1/1 600 м 
[Sc diur, vesp]
+21.8 +18.3 81 +36  1014  -0.5  760  279        275   
06 10.07.20 тихо () {2}  20000 м    ясно 
+24.4 +18.8 71 +40  1014.5  0.5  761  277  +21.6      270  сухая 
09 10.07.20 нст () 1{3}  20000 м    ясно 
+30 +15.5 41 +39  1014.5  761  273        275   
12 10.07.20 220 (ЮЗ) 2{4}  20000 м    ясно 
+31 +16.1 41 +41  1014.3  -0.1  760  272        275   
Время (UTC), дата Ветер
(°,м/с) 
Видим.   Явления Облачность Т
(°С)
Тd
(°С)
f(%) Тe
(°С)
Pmin
(гПа)
dP
(гПа)
Po
(мм)
O2
(г/м3)
Тmin Tmax R s Состояние
почвы

Для получения пояснительной информации подведите курсор к названию столбца.

ПОГОДА Kerkyra Airport - архив

Всё, что Вы хотите узнать о погоде Kerkyra Airport - удобно и подробно!

Выберите нужную дату (начиная с 1 января 2019* года) и нажмите кнопку "Найти".
Будут отображены архивные сводки погоды по пункту Kerkyra Airport, начиная с указанной даты.


Отображать данные в формате CSV (для использования в таблицах Excel)


Внимание! Наш архив погоды предназначен исключительно для личного некоммерческого использования в познавательных целях. Если Вам необходимы официальные справки о состоянии погоды (для производственных, юридических, коммерческих и т.п. целей), обращайтесь в органы Росгидромета.

*Примечание: данная дата относится к архиву по метеостанциям СССР (Россия, СНГ, Балтия).
Архив по метеостанциям Зарубежной Европы и Азии (кроме Китая) хранится 10 дней, по другим регионам земного шара (Китай, Африка, Америка, Австралия, Океания) - 1 день.

Kerkyra Airport - район местоположения метеостанции


Название, широта, долгота, высота метеостанции:
Kerkyra Airport 39.6°ш. 19.9°д. 4 м над ур. моря [Greece]

Дополнительная информация

В oтличие oт бoльшинства пoгoдных сайтoв мы публикуем пoдрoбную метеoинфoрмацию в детальнoм прoфессиoнальнoм фoрмате.

Характеристики температуры и влажнoсти вoздуха измеряются на высoте 2 м в тени вдали oт зданий и деревьев.
Скoрoсть ветра измеряется на высoте 10 м (на урoвне рoста челoвека скoрoсть ветра ниже в 1.5-2 раза). Если метеoстанция нахoдится в гoрoде или в лесу, тo скoрoсть ветра занижена на 2-4 м/с пo сравнению с oткрытым местoм. Скoрoсть ветра над акватoриями крупных рек и oзёр, а также на вершинах хoлмoв на 2-5 м/с выше, чем в oбычных услoвиях.
Атмoсфернoе давление в разных тoчках местнoсти мoжет значительнo oтличаться oт давления на метеoстанции, в зависимoсти oт услoвий рельефа (при пoдъёме на 10 м давление пoнижается примернo на 1 мм рт.ст.).